Change the Weather History Date:

Saturday, August 17, 2013

  Actual Average Record
Temperature  
Mean Temperature 67 °F -  
Max Temperature 79 °F 72 °F 89 °F (1969)
Min Temperature 55 °F 54 °F 41 °F (1968)
Cooling Degree Days 2    
Growing Degree Days 17 (Base 50)    
Moisture  
Dew Point 54 °F    
Average Humidity 60    
Maximum Humidity 86    
Minimum Humidity 40    
Precipitation  
Precipitation 0.00 in - - ()
Sea Level Pressure  
Sea Level Pressure 30.13 in    
Wind  
Wind Speed 6 mph (West)    
Max Wind Speed 18 mph    
Max Gust Speed 30 mph    
Visibility 10 miles    
Events      
Averages and records for this station are not official NWS values.
T = Trace of Precipitation, MM = Missing Value Source: NWS Daily Summary

Daily Weather History Graph

Daily Weather History Graph

Search for Another Location

Airport or City:

Trip Planner

Search our weather history database for the weather conditions in past years. The results will help you decide how hot, cold, wet, or windy it might be!

Date:

Astronomy

Aug. 17, 2013 Rise Set
Actual Time 6:53 AM EDT 9:01 PM EDT
Civil Twilight 6:20 AM EDT 9:34 PM EDT
Nautical Twilight 5:39 AM EDT 10:15 PM EDT
Astronomical Twilight 4:53 AM EDT 11:01 PM EDT
Moon 6:23 PM EDT (8/17) 2:49 AM EDT (8/17)
Length of Visible Light 15h 13m
Length of Day
14h 07m
Waxing Gibbous, 84% of the Moon is Illuminated
Aug 17
Waxing Gibbous
Aug 20
Full
Aug 28
Last Quarter
Sep 5
New
Sep 12
First Quarter

Hourly Weather History & Observations

Time (EDT) Temp. Dew Point Humidity Pressure Visibility Wind Dir Wind Speed Gust Speed Precip Events Conditions
12:53 AM 55.0 °F 51.1 °F 86% 30.14 in 10.0 mi Calm Calm - N/A   Clear
1:53 AM 57.0 °F 52.0 °F 83% 30.14 in 10.0 mi Calm Calm - N/A   Partly Cloudy
2:53 AM 59.0 °F 54.0 °F 83% 30.14 in 10.0 mi Calm Calm - N/A   Mostly Cloudy
3:53 AM 59.0 °F 53.1 °F 81% 30.14 in 10.0 mi Calm Calm - N/A   Clear
4:53 AM 61.0 °F 53.1 °F 75% 30.14 in 10.0 mi West 6.9 mph - N/A   Clear
5:53 AM 64.0 °F 55.0 °F 73% 30.14 in 10.0 mi West 10.4 mph - N/A   Clear
6:53 AM 64.0 °F 55.0 °F 73% 30.15 in 10.0 mi West 11.5 mph - N/A   Clear
7:53 AM 64.0 °F 55.0 °F 73% 30.16 in 10.0 mi West 11.5 mph - N/A   Clear
8:53 AM 68.0 °F 55.0 °F 63% 30.17 in 10.0 mi West 10.4 mph - N/A   Clear
9:53 AM 71.1 °F 55.0 °F 57% 30.18 in 10.0 mi West 9.2 mph - N/A   Clear
10:53 AM 73.0 °F 54.0 °F 51% 30.19 in 10.0 mi West 11.5 mph - N/A   Clear
11:53 AM 75.0 °F 53.1 °F 46% 30.19 in 10.0 mi West 15.0 mph - N/A   Clear
12:53 PM 75.9 °F 53.1 °F 45% 30.18 in 10.0 mi West 12.7 mph 23.0 mph N/A   Clear
1:53 PM 77.0 °F 51.1 °F 40% 30.16 in 10.0 mi West 18.4 mph 29.9 mph N/A   Clear
2:53 PM 78.1 °F 54.0 °F 43% 30.14 in 10.0 mi West 15.0 mph - N/A   Clear
3:53 PM 79.0 °F 54.0 °F 42% 30.12 in 10.0 mi West 13.8 mph - N/A   Clear
4:53 PM 78.1 °F 54.0 °F 43% 30.11 in 10.0 mi WNW 10.4 mph - N/A   Clear
5:53 PM 77.0 °F 55.0 °F 47% 30.10 in 10.0 mi WNW 9.2 mph - N/A   Clear
6:53 PM 77.0 °F 55.9 °F 48% 30.09 in 10.0 mi West 6.9 mph - N/A   Clear
7:53 PM 75.0 °F 55.0 °F 50% 30.09 in 10.0 mi West 6.9 mph - N/A   Clear
8:53 PM 70.0 °F 57.0 °F 63% 30.09 in 10.0 mi Calm Calm - N/A   Clear
9:53 PM 66.9 °F 55.9 °F 68% 30.09 in 10.0 mi Calm Calm - N/A   Clear
10:53 PM 71.1 °F 54.0 °F 55% 30.09 in 10.0 mi WSW 8.1 mph - N/A   Clear
11:53 PM 71.1 °F 53.1 °F 53% 30.08 in 10.0 mi SW 8.1 mph - N/A   Clear